EW3649 Weather Reports


time (UTC)temp
C
wind
direction
speed
KPH
gust
KPH
rain 1hr
cm
rain 24hr
cm
rain mn
cm
humidity
%
barometer
mb
20260502224005 23 0 0.0 0.0 0.00 0.00 0.00 58 1013.6
20260502223504 23 27 0.0 8.0 0.00 0.00 0.00 56 1013.6
20260502222505 23 15 0.0 3.2 0.00 0.00 0.00 55 1013.7
20260502221504 23 21 0.0 9.7 0.00 0.00 0.00 55 1013.9
20260502221006 23 18 0.0 6.4 0.00 0.00 0.00 55 1013.9
20260502220504 23 34 0.0 3.2 0.00 0.00 0.00 56 1014.0
20260502220005 23 24 0.0 4.8 0.00 0.00 0.00 56 1013.9
20260502215506 23 23 0.0 4.8 0.00 0.00 0.00 55 1014.0
20260502214505 23 51 0.0 9.7 0.00 0.00 0.00 56 1014.1
20260502214005 23 17 0.0 6.4 0.00 0.00 0.00 55 1014.2
20260502213504 23 16 0.0 6.4 0.00 0.00 0.00 56 1014.2
20260502213006 23 15 0.0 6.4 0.00 0.00 0.00 56 1014.2
20260502212506 23 0 0.0 0.0 0.00 0.00 0.00 57 1014.2
20260502212005 23 20 0.0 1.6 0.00 0.00 0.00 56 1014.4
20260502211005 22 17 0.0 3.2 0.00 0.00 0.00 56 1014.4
20260502210504 22 9 0.0 1.6 0.00 0.00 0.00 57 1014.4
20260502210005 22 15 0.0 3.2 0.00 0.00 0.00 57 1014.5
20260502205504 22 17 0.0 9.7 0.00 0.00 0.00 58 1014.5
20260502205005 22 16 0.0 9.7 0.00 0.00 0.00 59 1014.6
20260502204006 22 25 0.0 4.8 0.00 0.00 0.00 58 1014.7
20260502203006 22 20 0.0 6.4 0.00 0.00 0.00 58 1014.8
20260502202504 22 23 0.0 4.8 0.00 0.00 0.00 58 1014.8
20260502202005 22 26 0.0 1.6 0.00 0.00 0.00 58 1014.8
20260502201504 22 34 0.0 1.6 0.00 0.00 0.00 60 1014.9
20260502201004 22 38 0.0 3.2 0.00 0.00 0.00 59 1015.0
20260502200505 21 38 0.0 3.2 0.00 0.00 0.00 60 1015.0
20260502200005 21 37 0.0 3.2 0.00 0.00 0.00 61 1015.1
20260502195504 21 38 0.0 3.2 0.00 0.00 0.00 61 1015.2
20260502195004 21 39 0.0 3.2 0.00 0.00 0.00 61 1015.3
20260502194504 21 38 0.0 3.2 0.00 0.00 0.00 62 1015.2
20260502194006 21 26 0.0 4.8 0.00 0.00 0.00 61 1015.2
20260502193504 21 39 0.0 4.8 0.00 0.00 0.00 61 1015.3
20260502193004 21 52 0.0 6.4 0.00 0.00 0.00 63 1015.3
20260502192504 21 53 0.0 6.4 0.00 0.00 0.00 62 1015.4
20260502191504 20 358 0.0 4.8 0.00 0.00 0.00 63 1015.5
20260502191005 20 33 0.0 6.4 0.00 0.00 0.00 61 1015.5
20260502190504 20 49 0.0 6.4 0.00 0.00 0.00 61 1015.6
20260502185505 20 62 0.0 4.8 0.00 0.00 0.00 64 1015.7
20260502185004 20 52 0.0 4.8 0.00 0.00 0.00 64 1015.7
20260502184504 20 318 0.0 1.6 0.00 0.00 0.00 63 1015.8
20260502183504 19 297 0.0 1.6 0.00 0.00 0.00 65 1015.9
20260502183004 19 0 0.0 0.0 0.00 0.00 0.00 64 1015.9
20260502182504 19 0 0.0 0.0 0.00 0.00 0.00 68 1015.8
20260502182005 18 0 0.0 0.0 0.00 0.00 0.00 66 1015.9
20260502181504 18 0 0.0 0.0 0.00 0.00 0.00 66 1015.9
20260502181004 18 0 0.0 0.0 0.00 0.00 0.00 67 1016.0
20260502180504 18 0 0.0 0.0 0.00 0.00 0.00 67 1015.9
20260502170504 15 22 0.0 3.2 0.00 0.00 0.00 75 1016.2
20260502164007 14 12 0.0 3.2 0.00 0.00 0.00 80 1016.1
20260502163004 13 0 0.0 0.0 0.00 0.00 0.00 83 1016.4
20260502162503 13 0 0.0 0.0 0.00 0.00 0.00 85 1016.4
20260502162005 13 0 0.0 0.0 0.00 0.00 0.00 85 1016.4
20260502161505 12 0 0.0 0.0 0.00 0.00 0.00 85 1016.5
20260502161005 12 0 0.0 0.0 0.00 0.00 0.00 86 1016.5
20260502160504 12 0 0.0 0.0 0.00 0.00 0.00 86 1016.5
20260502152006 11 0 0.0 0.0 0.00 0.00 0.00 89 1016.4
20260502151504 11 0 0.0 0.0 0.00 0.00 0.00 89 1016.3
20260502151006 11 0 0.0 0.0 0.00 0.00 0.00 89 1016.3
20260502123504 10 0 0.0 0.0 0.00 0.00 0.00 88 1016.5
20260502123005 10 0 0.0 0.0 0.00 0.00 0.00 88 1016.4
20260502122504 10 0 0.0 0.0 0.00 0.00 0.00 88 1016.6
20260502122005 11 0 0.0 0.0 0.00 0.00 0.00 88 1016.6
20260502121504 11 0 0.0 0.0 0.00 0.00 0.00 88 1016.6
20260502121005 11 0 0.0 0.0 0.00 0.00 0.00 88 1016.5
20260502120505 11 0 0.0 0.0 0.00 0.00 0.00 88 1016.4
20260502115503 11 0 0.0 0.0 0.00 0.00 0.00 88 1016.5
20260502115005 11 0 0.0 0.0 0.00 0.00 0.00 87 1016.5
20260502114503 11 0 0.0 0.0 0.00 0.00 0.00 87 1016.5
20260502114005 11 0 0.0 0.0 0.00 0.00 0.00 87 1016.7
20260502113504 11 0 0.0 0.0 0.00 0.00 0.00 87 1016.7
20260502113005 11 0 0.0 0.0 0.00 0.00 0.00 87 1016.7
20260502112504 11 0 0.0 0.0 0.00 0.00 0.00 87 1016.7
20260502112006 11 0 0.0 0.0 0.00 0.00 0.00 86 1016.7
20260502111504 11 0 0.0 0.0 0.00 0.00 0.00 86 1016.7
20260502111010 11 0 0.0 0.0 0.00 0.00 0.00 86 1016.8
20260502110504 11 225 0.0 1.6 0.00 0.00 0.00 85 1016.8
20260502110005 11 225 0.0 1.6 0.00 0.00 0.00 85 1016.9
20260502105504 11 225 0.0 3.2 0.00 0.00 0.00 85 1017.3
20260502104504 11 237 0.0 3.2 0.00 0.00 0.00 85 1017.3
20260502104005 11 247 0.0 3.2 0.00 0.00 0.00 85 1017.2
20260502103005 11 251 0.0 3.2 0.00 0.00 0.00 85 1016.6
20260502102503 11 0 0.0 0.0 0.00 0.00 0.00 85 1016.5
20260502101504 11 0 0.0 0.0 0.00 0.00 0.00 84 1016.3
20260502100503 11 0 0.0 0.0 0.00 0.00 0.00 84 1016.1
20260502091503 12 0 0.0 0.0 0.00 0.00 0.00 81 1016.1
20260502091004 12 0 0.0 0.0 0.00 0.00 0.00 81 1016.1
20260502071505 14 0 0.0 0.0 0.00 0.00 0.00 73 1016.2
20260502070506 14 0 0.0 0.0 0.00 0.00 0.00 73 1016.1
20260502070013 15 0 0.0 0.0 0.00 0.00 0.00 72 1016.1
20260502065505 15 0 0.0 0.0 0.00 0.00 0.00 73 1016.1
20260502065007 15 0 0.0 0.0 0.00 0.00 0.00 72 1016.0
20260502064505 15 0 0.0 0.0 0.00 0.00 0.00 71 1015.9
20260502064005 15 0 0.0 0.0 0.00 0.00 0.00 71 1015.9
20260502063505 15 0 0.0 0.0 0.00 0.00 0.00 70 1016.0
20260502063006 15 0 0.0 0.0 0.00 0.00 0.00 69 1016.0
20260502062505 16 0 0.0 0.0 0.00 0.00 0.00 69 1016.1
20260502062005 16 0 0.0 0.0 0.00 0.00 0.00 68 1016.0
20260502061006 16 0 0.0 0.0 0.00 0.00 0.00 65 1015.6
20260502060505 16 0 0.0 0.0 0.00 0.00 0.00 65 1015.8
20260502060006 16 0 0.0 0.0 0.00 0.00 0.00 65 1015.7
20260502055505 16 0 0.0 0.0 0.00 0.00 0.00 65 1015.5
20260502055006 16 0 0.0 0.0 0.00 0.00 0.00 64 1015.6
20260502054505 16 0 0.0 0.0 0.00 0.00 0.00 65 1015.5
20260502054006 16 0 0.0 0.0 0.00 0.00 0.00 65 1015.5
20260502053006 16 0 0.0 0.0 0.00 0.00 0.00 65 1015.4
20260502052505 16 0 0.0 0.0 0.00 0.00 0.00 65 1015.3
20260502052005 16 0 0.0 0.0 0.00 0.00 0.00 66 1015.3
20260502051505 16 0 0.0 0.0 0.00 0.00 0.00 66 1015.3
20260502051006 16 22 0.0 1.6 0.00 0.00 0.00 67 1015.2
20260502050505 16 22 0.0 1.6 0.00 0.00 0.00 67 1015.1
20260502050006 16 0 0.0 0.0 0.00 0.00 0.00 67 1015.2
20260502045505 16 0 0.0 0.0 0.00 0.00 0.00 67 1015.2
20260502045006 16 0 0.0 0.0 0.00 0.00 0.00 67 1015.2
20260502044505 16 0 0.0 0.0 0.00 0.00 0.00 66 1015.0
20260502044006 17 0 0.0 0.0 0.00 0.00 0.00 66 1015.0
20260502043505 17 0 0.0 0.0 0.00 0.00 0.00 66 1014.9
20260502043006 17 0 0.0 0.0 0.00 0.00 0.00 65 1015.0
20260502042505 17 0 0.0 0.0 0.00 0.00 0.00 65 1015.0
20260502042006 17 0 0.0 0.0 0.00 0.00 0.00 64 1014.9
20260502041006 17 0 0.0 0.0 0.00 0.00 0.00 63 1014.8
20260502040505 17 0 0.0 0.0 0.00 0.00 0.00 63 1014.7
20260502040006 17 0 0.0 0.0 0.00 0.00 0.00 62 1014.7
20260502035504 17 0 0.0 0.0 0.00 0.00 0.00 61 1014.7
20260502034505 18 0 0.0 0.0 0.00 0.00 0.00 60 1014.6
20260502034006 18 0 0.0 0.0 0.00 0.00 0.00 58 1014.5
20260502033505 18 20 0.0 1.6 0.00 0.00 0.00 57 1014.4
20260502033006 18 20 0.0 1.6 0.00 0.00 0.00 57 1014.2
20260502032505 18 0 0.0 0.0 0.00 0.00 0.00 57 1014.3
20260502032006 18 0 0.0 0.0 0.00 0.00 0.00 56 1014.3
20260502031505 18 0 0.0 0.0 0.00 0.00 0.00 55 1014.2
20260502031006 18 0 0.0 0.0 0.00 0.00 0.00 55 1014.1
20260502030505 18 0 0.0 0.0 0.00 0.00 0.00 55 1014.2
20260502030006 18 0 0.0 0.0 0.00 0.00 0.00 54 1014.1
20260502025505 18 0 0.0 0.0 0.00 0.00 0.00 54 1014.0
20260502025005 18 0 0.0 0.0 0.00 0.00 0.00 53 1014.0
20260502024506 19 0 0.0 0.0 0.00 0.00 0.00 53 1014.0
20260502024005 19 0 0.0 0.0 0.00 0.00 0.00 52 1014.0
20260502023505 19 0 0.0 0.0 0.00 0.00 0.00 52 1013.9
20260502023005 19 0 0.0 0.0 0.00 0.00 0.00 53 1013.9
20260502022504 20 24 0.0 4.8 0.00 0.00 0.00 52 1013.8
20260502022005 20 24 0.0 4.8 0.00 0.00 0.00 52 1013.7
20260502021505 20 20 0.0 6.4 0.00 0.00 0.00 51 1013.8
20260502021005 20 22 0.0 6.4 0.00 0.00 0.00 49 1013.8
20260502020506 20 20 0.0 8.0 0.00 0.00 0.00 49 1013.9
20260502020005 20 17 0.0 8.0 0.00 0.00 0.00 49 1013.8
20260502015505 20 0 0.0 0.0 0.00 0.00 0.00 49 1013.8
20260502015006 20 0 0.0 0.0 0.00 0.00 0.00 49 1013.8
20260502014005 20 17 0.0 8.0 0.00 0.00 0.00 50 1013.8
20260502013505 20 20 0.0 6.4 0.00 0.00 0.00 49 1013.8
20260502012005 21 23 0.0 1.6 0.00 0.00 0.00 48 1013.9
20260502011505 21 23 0.0 1.6 0.00 0.00 0.00 50 1014.0
20260502011006 21 23 0.0 1.6 0.00 0.00 0.00 49 1014.1
20260502010504 21 23 0.0 1.6 0.00 0.00 0.00 49 1013.9
20260502010005 21 23 0.0 1.6 0.00 0.00 0.00 48 1013.9
20260502005505 21 0 0.0 0.0 0.00 0.00 0.00 48 1014.0
20260502005006 21 0 0.0 0.0 0.00 0.00 0.00 48 1014.0
20260502004504 21 0 0.0 0.0 0.00 0.00 0.00 47 1013.9
20260502004006 21 23 0.0 4.8 0.00 0.00 0.00 47 1014.0
20260502003505 21 22 0.0 6.4 0.00 0.00 0.00 47 1013.9
20260502003006 22 21 0.0 6.4 0.00 0.00 0.00 47 1013.9
20260502002505 22 22 0.0 1.6 0.00 0.00 0.00 48 1013.9
20260502002005 22 24 0.0 4.8 0.00 0.00 0.00 46 1013.9
20260502001504 22 23 0.0 4.8 0.00 0.00 0.00 46 1013.9
20260502000505 22 0 0.0 0.0 0.00 0.00 0.00 45 1013.9
20260502000005 22 0 0.0 0.0 0.00 0.00 0.00 49 1013.9
20260501235504 23 0 0.0 0.0 0.00 0.00 0.00 46 1013.8
20260501235005 23 0 0.0 0.0 0.00 0.00 0.00 47 1013.8
20260501234505 23 0 0.0 0.0 0.00 0.00 0.00 46 1013.9
20260501233504 23 0 0.0 0.0 0.00 0.00 0.00 46 1013.9
20260501233006 23 16 0.0 3.2 0.00 0.00 0.00 45 1013.8
20260501232005 23 17 0.0 1.6 0.00 0.00 0.00 45 1014.0
20260501231504 23 0 0.0 0.0 0.00 0.00 0.00 44 1014.0
20260501231006 23 0 0.0 0.0 0.00 0.00 0.00 43 1014.0
20260501230504 23 0 0.0 0.0 0.00 0.00 0.00 42 1014.1
20260501230005 23 26 0.0 3.2 0.00 0.00 0.00 43 1014.2
20260501225504 23 26 0.0 4.8 0.00 0.00 0.00 42 1014.4
20260501225006 23 26 0.0 4.8 0.00 0.00 0.00 43 1014.4